Flag for Austria Weather past 2 weeks in Stockerau, Lower Austria, Austria

Now
57 °F

Passing clouds.


Feels Like: 57 °F
Forecast: 47 / 67 °F
Wind: 2 mph from North

Location: Tulln Airport

Current Time: Aug 23, 2014 at 7:58:35 AM

Latest Report: Aug 23, 2014 at 6:50 AM


Visibility: 37 mi

Pressure: 29.98 "Hg

Humidity: 94%

Dew point: 55 °F

Location of StockerauLocation

Historic Weather in Stockerau — Graph

°F

Stockerau temperature yesterday

Maximum temperature yesterday: 73 °F (at 2:50 PM)
Minimum temperature yesterday: 55 °F (at 5:50 AM)
Average temperature yesterday: 65 °F

Past Weeks' High & Low Weather Summary

 TemperatureHumidityPressure
High90 °F (Aug 9, 2:50 PM)100% (Aug 19, 7:50 AM)30.09 "Hg (Aug 19, 7:50 AM)
Low50 °F (Aug 18, 5:50 AM)34% (Aug 18, 4:50 PM)29.68 "Hg (Aug 13, 7:50 PM)
Average67 °F72%29.96 "Hg
* Reported Aug 8 6:50 AM — Aug 23 6:50 AM, Stockerau, Weather by CustomWeather, © 2014

Note: Actual official high and low records may vary slightly from our data, if they occured in-between our weather recording intervals... More about our weather records

Advertising

Stockerau weather history for previous 24 hours

 ConditionsComfort  
Time TempWeatherWind HumidityBarometerVisibility
6:50 AM
Aug 23
57 °FPassing clouds.2 mph94%29.98 "Hg37 mi
5:50 AM55 °FPassing clouds.5 mph94%29.98 "Hg37 mi
10:50 PM
Aug 22
64 °FSprinkles. Partly cloudy.6 mph83%29.98 "Hg6 mi
9:50 PM64 °FPartly cloudy.6 mph78%29.98 "Hg19 mi
7:50 PM66 °FScattered clouds.8 mph68%29.95 "Hg37 mi
6:50 PM70 °FPartly sunny.10 mph60%29.95 "Hg19 mi
5:50 PM72 °FPartly sunny.13 mph57%29.95 "Hg19 mi
4:50 PM73 °FPartly sunny.13 mph50%29.98 "Hg19 mi
3:50 PM73 °FScattered clouds.12 mph53%29.98 "Hg19 mi
2:50 PM73 °FScattered clouds.12 mph53%29.98 "Hg19 mi
1:50 PM72 °FScattered clouds.13 mph61%30.01 "Hg19 mi
11:50 AM64 °FBroken clouds.3 mph83%30.04 "Hg12 mi
10:50 AM59 °FPartly sunny.7 mph94%30.04 "Hg12 mi
9:50 AM57 °FBroken clouds.2 mph94%30.04 "Hg5 mi
8:50 AM57 °FSprinkles. Broken clouds.1 mph94%30.04 "Hg5 mi
7:50 AM55 °FBroken clouds.7 mph100%30.04 "Hg5 mi
Weather by CustomWeather, © 2014

See weather overviewHow to use our weather pages